contact:dominique.lefevre@mio.osupytheas.fr, maurice.libes@osupytheas.fr, didier.mallarino@osupytheas.fr
Project:EMSO http://www.emso-fr.org/EMSO-France
Depth: 2436.0 m
Title:EMSO Ligure Ouest : Data MII capteur MICROCAT
DateTime_Computer,Latitude,Longitude,Temperature,Conductivity,Pressure,DateTime_Instrument
DateTime_Computer,Latitude,Longitude,degC,S m-1,dbar,DateTime_Instrument
2023-07-07T00:00:51Z,42.805,6.029,13.3024,4.60086,2470.787,2023-7-07T02:03:07Z
2023-07-07T00:03:54Z,42.805,6.029,13.3028,4.60088,2470.871,2023-7-07T02:06:10Z
2023-07-07T00:06:57Z,42.805,6.029,13.3025,4.60087,2470.824,2023-7-07T02:09:13Z
2023-07-07T00:10:00Z,42.805,6.029,13.3025,4.60087,2470.847,2023-7-07T02:12:16Z
2023-07-07T00:13:03Z,42.805,6.029,13.3025,4.60087,2470.847,2023-7-07T02:15:19Z
2023-07-07T00:16:06Z,42.805,6.029,13.3027,4.60088,2470.833,2023-7-07T02:18:22Z
2023-07-07T00:19:09Z,42.805,6.029,13.3024,4.60091,2470.847,2023-7-07T02:21:25Z
2023-07-07T00:22:12Z,42.805,6.029,13.3029,4.60087,2470.833,2023-7-07T02:24:28Z
2023-07-07T00:25:16Z,42.805,6.029,13.3026,4.60087,2470.81,2023-7-07T02:27:32Z
2023-07-07T00:28:19Z,42.805,6.029,13.3026,4.60086,2470.833,2023-7-07T02:30:35Z
2023-07-07T00:31:22Z,42.805,6.029,13.3025,4.60087,2470.81,2023-7-07T02:33:38Z
2023-07-07T00:34:25Z,42.805,6.029,13.3026,4.60086,2470.833,2023-7-07T02:36:41Z
2023-07-07T00:37:28Z,42.805,6.029,13.3029,4.60086,2470.81,2023-7-07T02:39:44Z
2023-07-07T00:40:31Z,42.805,6.029,13.3024,4.60085,2470.787,2023-7-07T02:42:47Z
2023-07-07T00:43:34Z,42.805,6.029,13.3027,4.60086,2470.787,2023-7-07T02:45:50Z
2023-07-07T00:46:37Z,42.805,6.029,13.3026,4.60088,2470.81,2023-7-07T02:48:53Z
2023-07-07T00:49:40Z,42.805,6.029,13.3029,4.60087,2470.8,2023-7-07T02:51:56Z
2023-07-07T00:52:43Z,42.805,6.029,13.3026,4.60088,2470.787,2023-7-07T02:54:59Z
2023-07-07T00:55:46Z,42.805,6.029,13.3026,4.60086,2470.763,2023-7-07T02:58:02Z
2023-07-07T00:58:49Z,42.805,6.029,13.3029,4.60086,2470.777,2023-7-07T03:01:05Z
2023-07-07T01:01:53Z,42.805,6.029,13.3027,4.60087,2470.787,2023-7-07T03:04:08Z
2023-07-07T01:04:56Z,42.805,6.029,13.3029,4.60087,2470.777,2023-7-07T03:07:12Z
2023-07-07T01:07:59Z,42.805,6.029,13.3025,4.60087,2470.763,2023-7-07T03:10:15Z
2023-07-07T01:11:02Z,42.805,6.029,13.3027,4.60086,2470.763,2023-7-07T03:13:18Z
2023-07-07T01:14:05Z,42.805,6.029,13.3026,4.60088,2470.74,2023-7-07T03:16:21Z
2023-07-07T01:17:08Z,42.805,6.029,13.3031,4.60090,2470.787,2023-7-07T03:19:24Z
2023-07-07T01:20:11Z,42.805,6.029,13.3028,4.60087,2470.787,2023-7-07T03:22:27Z
2023-07-07T01:23:14Z,42.805,6.029,13.3034,4.60087,2470.74,2023-7-07T03:25:30Z
2023-07-07T01:26:17Z,42.805,6.029,13.3026,4.60086,2470.777,2023-7-07T03:28:33Z
2023-07-07T01:29:20Z,42.805,6.029,13.3030,4.60086,2470.74,2023-7-07T03:31:36Z
2023-07-07T01:32:23Z,42.805,6.029,13.3026,4.60087,2470.74,2023-7-07T03:34:39Z
2023-07-07T01:35:26Z,42.805,6.029,13.3026,4.60089,2470.777,2023-7-07T03:37:42Z
2023-07-07T01:38:29Z,42.805,6.029,13.3032,4.60089,2470.74,2023-7-07T03:40:45Z
2023-07-07T01:41:33Z,42.805,6.029,13.3029,4.60089,2470.74,2023-7-07T03:43:48Z
2023-07-07T01:44:36Z,42.805,6.029,13.3028,4.60087,2470.754,2023-7-07T03:46:52Z
2023-07-07T01:47:39Z,42.805,6.029,13.3026,4.60087,2470.717,2023-7-07T03:49:55Z
2023-07-07T01:50:42Z,42.805,6.029,13.3024,4.60087,2470.74,2023-7-07T03:52:58Z
2023-07-07T01:53:45Z,42.805,6.029,13.3029,4.60087,2470.74,2023-7-07T03:56:01Z
2023-07-07T01:56:48Z,42.805,6.029,13.3026,4.60087,2470.717,2023-7-07T03:59:04Z
2023-07-07T01:59:51Z,42.805,6.029,13.3029,4.60086,2470.754,2023-7-07T04:02:07Z
2023-07-07T02:02:54Z,42.805,6.029,13.3029,4.60086,2470.717,2023-7-07T04:05:10Z
2023-07-07T02:05:57Z,42.805,6.029,13.3026,4.60088,2470.74,2023-7-07T04:08:13Z
2023-07-07T02:09:00Z,42.805,6.029,13.3027,4.60086,2470.74,2023-7-07T04:11:16Z
2023-07-07T02:12:03Z,42.805,6.029,13.3028,4.60088,2470.717,2023-7-07T04:14:19Z
2023-07-07T02:15:06Z,42.805,6.029,13.3026,4.60086,2470.73,2023-7-07T04:17:22Z
2023-07-07T02:18:09Z,42.805,6.029,13.3030,4.60087,2470.703,2023-7-07T04:20:25Z
2023-07-07T02:21:13Z,42.805,6.029,13.3028,4.60088,2470.717,2023-7-07T04:23:28Z
2023-07-07T02:24:16Z,42.805,6.029,13.3032,4.60087,2470.73,2023-7-07T04:26:32Z
2023-07-07T02:27:19Z,42.805,6.029,13.3024,4.60087,2470.707,2023-7-07T04:29:35Z
2023-07-07T02:30:22Z,42.805,6.029,13.3024,4.60087,2470.717,2023-7-07T04:32:38Z
2023-07-07T02:33:25Z,42.805,6.029,13.3029,4.60087,2470.707,2023-7-07T04:35:41Z
2023-07-07T02:36:28Z,42.805,6.029,13.3028,4.60087,2470.693,2023-7-07T04:38:44Z
2023-07-07T02:39:31Z,42.805,6.029,13.3029,4.60087,2470.67,2023-7-07T04:41:47Z
2023-07-07T02:42:34Z,42.805,6.029,13.3028,4.60087,2470.693,2023-7-07T04:44:50Z
2023-07-07T02:45:37Z,42.805,6.029,13.3029,4.60086,2470.754,2023-7-07T04:47:53Z
2023-07-07T02:48:40Z,42.805,6.029,13.3029,4.60089,2470.693,2023-7-07T04:50:56Z
2023-07-07T02:51:43Z,42.805,6.029,13.3026,4.60089,2470.693,2023-7-07T04:53:59Z
2023-07-07T02:54:46Z,42.805,6.029,13.3029,4.60086,2470.707,2023-7-07T04:57:02Z
2023-07-07T02:57:49Z,42.805,6.029,13.3026,4.60089,2470.707,2023-7-07T05:00:05Z
2023-07-07T03:00:53Z,42.805,6.029,13.3027,4.60087,2470.67,2023-7-07T05:03:09Z
2023-07-07T03:03:56Z,42.805,6.029,13.3029,4.60086,2470.684,2023-7-07T05:06:12Z
2023-07-07T03:06:59Z,42.805,6.029,13.3028,4.60086,2470.661,2023-7-07T05:09:15Z
2023-07-07T03:10:02Z,42.805,6.029,13.3026,4.60086,2470.707,2023-7-07T05:12:18Z
2023-07-07T03:13:05Z,42.805,6.029,13.3027,4.60091,2470.679,2023-7-07T05:15:21Z
2023-07-07T03:16:08Z,42.805,6.029,13.3028,4.60086,2470.684,2023-7-07T05:18:24Z
2023-07-07T03:19:11Z,42.805,6.029,13.3029,4.60087,2470.67,2023-7-07T05:21:27Z
2023-07-07T03:22:14Z,42.805,6.029,13.3026,4.60087,2470.67,2023-7-07T05:24:30Z
2023-07-07T03:25:17Z,42.805,6.029,13.3029,4.60086,2470.707,2023-7-07T05:27:33Z
2023-07-07T03:28:20Z,42.805,6.029,13.3029,4.60087,2470.67,2023-7-07T05:30:36Z
2023-07-07T03:31:23Z,42.805,6.029,13.3027,4.60089,2470.67,2023-7-07T05:33:39Z
2023-07-07T03:34:26Z,42.805,6.029,13.3026,4.60086,2470.67,2023-7-07T05:36:42Z
2023-07-07T03:37:29Z,42.805,6.029,13.3030,4.60087,2470.646,2023-7-07T05:39:45Z
2023-07-07T03:40:33Z,42.805,6.029,13.3026,4.60087,2470.624,2023-7-07T05:42:49Z
2023-07-07T03:43:36Z,42.805,6.029,13.3026,4.60091,2470.67,2023-7-07T05:45:52Z
2023-07-07T03:46:39Z,42.805,6.029,13.3029,4.60089,2470.67,2023-7-07T05:48:55Z
2023-07-07T03:49:42Z,42.805,6.029,13.3031,4.60088,2470.646,2023-7-07T05:51:58Z
2023-07-07T03:52:45Z,42.805,6.029,13.3027,4.60087,2470.661,2023-7-07T05:55:01Z
2023-07-07T03:55:48Z,42.805,6.029,13.3028,4.60087,2470.67,2023-7-07T05:58:04Z
2023-07-07T03:58:51Z,42.805,6.029,13.3027,4.60089,2470.661,2023-7-07T06:01:07Z
2023-07-07T04:01:54Z,42.805,6.029,13.3029,4.60089,2470.67,2023-7-07T06:04:10Z
2023-07-07T04:04:57Z,42.805,6.029,13.3026,4.60087,2470.646,2023-7-07T06:07:13Z
2023-07-07T04:08:00Z,42.805,6.029,13.3029,4.60090,2470.646,2023-7-07T06:10:16Z
2023-07-07T04:11:03Z,42.805,6.029,13.3023,4.60087,2470.661,2023-7-07T06:13:19Z
2023-07-07T04:14:06Z,42.805,6.029,13.3028,4.60086,2470.646,2023-7-07T06:16:22Z
2023-07-07T04:17:09Z,42.805,6.029,13.3029,4.60086,2470.624,2023-7-07T06:19:25Z
2023-07-07T04:20:13Z,42.805,6.029,13.3026,4.60086,2470.624,2023-7-07T06:22:29Z
2023-07-07T04:23:16Z,42.805,6.029,13.3024,4.60089,2470.67,2023-7-07T06:25:32Z
2023-07-07T04:26:19Z,42.805,6.029,13.3026,4.60089,2470.646,2023-7-07T06:28:35Z
2023-07-07T04:29:22Z,42.805,6.029,13.3026,4.60086,2470.637,2023-7-07T06:31:38Z
2023-07-07T04:32:25Z,42.805,6.029,13.3027,4.60087,2470.624,2023-7-07T06:34:41Z
2023-07-07T04:35:28Z,42.805,6.029,13.3026,4.60085,2470.637,2023-7-07T06:37:44Z
2023-07-07T04:38:31Z,42.805,6.029,13.3024,4.60085,2470.646,2023-7-07T06:40:47Z
2023-07-07T04:41:34Z,42.805,6.029,13.3027,4.60089,2470.646,2023-7-07T06:43:50Z
2023-07-07T04:44:37Z,42.805,6.029,13.3021,4.60087,2470.624,2023-7-07T06:46:53Z
2023-07-07T04:47:40Z,42.805,6.029,13.3024,4.60084,2470.646,2023-7-07T06:49:56Z
2023-07-07T04:50:43Z,42.805,6.029,13.3026,4.60087,2470.661,2023-7-07T06:52:59Z
2023-07-07T04:53:46Z,42.805,6.029,13.3026,4.60087,2470.661,2023-7-07T06:56:02Z
2023-07-07T04:56:50Z,42.805,6.029,13.3024,4.60088,2470.614,2023-7-07T06:59:06Z
2023-07-07T04:59:53Z,42.805,6.029,13.3027,4.60086,2470.6,2023-7-07T07:02:09Z
2023-07-07T05:02:56Z,42.805,6.029,13.3032,4.60086,2470.646,2023-7-07T07:05:12Z
2023-07-07T05:05:59Z,42.805,6.029,13.3028,4.60091,2470.624,2023-7-07T07:08:15Z
2023-07-07T05:09:02Z,42.805,6.029,13.3029,4.60088,2470.646,2023-7-07T07:11:18Z
2023-07-07T05:12:05Z,42.805,6.029,13.3030,4.60087,2470.624,2023-7-07T07:14:21Z
2023-07-07T05:15:08Z,42.805,6.029,13.3030,4.60087,2470.624,2023-7-07T07:17:24Z
2023-07-07T05:18:11Z,42.805,6.029,13.3027,4.60087,2470.637,2023-7-07T07:20:27Z
2023-07-07T05:21:14Z,42.805,6.029,13.3028,4.60086,2470.624,2023-7-07T07:23:30Z
2023-07-07T05:24:17Z,42.805,6.029,13.3027,4.60085,2470.624,2023-7-07T07:26:33Z
2023-07-07T05:27:20Z,42.805,6.029,13.3028,4.60088,2470.624,2023-7-07T07:29:36Z
2023-07-07T05:30:23Z,42.805,6.029,13.3026,4.60087,2470.624,2023-7-07T07:32:39Z
2023-07-07T05:33:26Z,42.805,6.029,13.3026,4.60090,2470.624,2023-7-07T07:35:42Z
2023-07-07T05:36:30Z,42.805,6.029,13.3028,4.60086,2470.624,2023-7-07T07:38:46Z
2023-07-07T05:39:33Z,42.805,6.029,13.3026,4.60085,2470.646,2023-7-07T07:41:49Z
2023-07-07T05:42:36Z,42.805,6.029,13.3026,4.60087,2470.624,2023-7-07T07:44:52Z
2023-07-07T05:45:39Z,42.805,6.029,13.3026,4.60087,2470.624,2023-7-07T07:47:55Z
2023-07-07T05:48:42Z,42.805,6.029,13.3025,4.60089,2470.646,2023-7-07T07:50:58Z
2023-07-07T05:51:45Z,42.805,6.029,13.3027,4.60091,2470.661,2023-7-07T07:54:01Z
2023-07-07T05:54:48Z,42.805,6.029,13.3024,4.60089,2470.61,2023-7-07T07:57:04Z
2023-07-07T05:57:51Z,42.805,6.029,13.3027,4.60087,2470.624,2023-7-07T08:00:07Z
2023-07-07T06:00:54Z,42.805,6.029,13.3025,4.60087,2470.646,2023-7-07T08:03:10Z
2023-07-07T06:03:57Z,42.805,6.029,13.3026,4.60088,2470.646,2023-7-07T08:06:13Z
2023-07-07T06:07:00Z,42.805,6.029,13.3027,4.60089,2470.624,2023-7-07T08:09:16Z
2023-07-07T06:10:03Z,42.805,6.029,13.3026,4.60087,2470.661,2023-7-07T08:12:19Z
2023-07-07T06:13:07Z,42.805,6.029,13.3022,4.60090,2470.646,2023-7-07T08:15:22Z
2023-07-07T06:16:10Z,42.805,6.029,13.3026,4.60089,2470.646,2023-7-07T08:18:26Z
2023-07-07T06:19:13Z,42.805,6.029,13.3029,4.60088,2470.614,2023-7-07T08:21:29Z
2023-07-07T06:22:16Z,42.805,6.029,13.3024,4.60088,2470.646,2023-7-07T08:24:32Z
2023-07-07T06:25:19Z,42.805,6.029,13.3026,4.60086,2470.707,2023-7-07T08:27:35Z
2023-07-07T06:28:22Z,42.805,6.029,13.3028,4.60089,2470.646,2023-7-07T08:30:38Z
2023-07-07T06:31:25Z,42.805,6.029,13.3028,4.60088,2470.684,2023-7-07T08:33:41Z
2023-07-07T06:34:28Z,42.805,6.029,13.3030,4.60091,2470.646,2023-7-07T08:36:44Z
2023-07-07T06:37:31Z,42.805,6.029,13.3023,4.60087,2470.646,2023-7-07T08:39:47Z
2023-07-07T06:40:34Z,42.805,6.029,13.3029,4.60089,2470.646,2023-7-07T08:42:50Z
2023-07-07T06:43:37Z,42.805,6.029,13.3026,4.60086,2470.67,2023-7-07T08:45:53Z
2023-07-07T06:46:40Z,42.805,6.029,13.3029,4.60087,2470.646,2023-7-07T08:48:56Z
2023-07-07T06:49:43Z,42.805,6.029,13.3025,4.60087,2470.67,2023-7-07T08:51:59Z
2023-07-07T06:52:47Z,42.805,6.029,13.3029,4.60086,2470.707,2023-7-07T08:55:03Z
2023-07-07T06:55:50Z,42.805,6.029,13.3027,4.60087,2470.67,2023-7-07T08:58:06Z
2023-07-07T06:58:53Z,42.805,6.029,13.3026,4.60087,2470.646,2023-7-07T09:01:09Z
2023-07-07T07:01:56Z,42.805,6.029,13.3024,4.60089,2470.67,2023-7-07T09:04:12Z
2023-07-07T07:04:59Z,42.805,6.029,13.3030,4.60087,2470.679,2023-7-07T09:07:15Z
2023-07-07T07:08:02Z,42.805,6.029,13.3029,4.60088,2470.656,2023-7-07T09:10:18Z
2023-07-07T07:11:05Z,42.805,6.029,13.3027,4.60088,2470.693,2023-7-07T09:13:21Z
2023-07-07T07:14:08Z,42.805,6.029,13.3028,4.60087,2470.67,2023-7-07T09:16:24Z
2023-07-07T07:17:11Z,42.805,6.029,13.3026,4.60087,2470.656,2023-7-07T09:19:27Z
2023-07-07T07:20:14Z,42.805,6.029,13.3025,4.60086,2470.67,2023-7-07T09:22:30Z
2023-07-07T07:23:17Z,42.805,6.029,13.3030,4.60085,2470.693,2023-7-07T09:25:33Z
2023-07-07T07:26:20Z,42.805,6.029,13.3024,4.60086,2470.717,2023-7-07T09:28:36Z
2023-07-07T07:29:23Z,42.805,6.029,13.3024,4.60087,2470.684,2023-7-07T09:31:39Z
2023-07-07T07:32:27Z,42.805,6.029,13.3026,4.60086,2470.717,2023-7-07T09:34:43Z
2023-07-07T07:35:30Z,42.805,6.029,13.3028,4.60087,2470.717,2023-7-07T09:37:46Z
2023-07-07T07:38:33Z,42.805,6.029,13.3029,4.60088,2470.717,2023-7-07T09:40:49Z
2023-07-07T07:41:36Z,42.805,6.029,13.3023,4.60087,2470.684,2023-7-07T09:43:52Z
2023-07-07T07:44:39Z,42.805,6.029,13.3026,4.60087,2470.717,2023-7-07T09:46:55Z
2023-07-07T07:47:42Z,42.805,6.029,13.3030,4.60088,2470.717,2023-7-07T09:49:58Z
2023-07-07T07:50:45Z,42.805,6.029,13.3028,4.60091,2470.73,2023-7-07T09:53:01Z
2023-07-07T07:53:48Z,42.805,6.029,13.3027,4.60087,2470.73,2023-7-07T09:56:04Z
2023-07-07T07:56:51Z,42.805,6.029,13.3026,4.60087,2470.67,2023-7-07T09:59:07Z
2023-07-07T07:59:54Z,42.805,6.029,13.3028,4.60087,2470.74,2023-7-07T10:02:10Z
2023-07-07T08:02:57Z,42.805,6.029,13.3028,4.60086,2470.717,2023-7-07T10:05:13Z
2023-07-07T08:06:00Z,42.805,6.029,13.3029,4.60089,2470.693,2023-7-07T10:08:16Z
2023-07-07T08:09:03Z,42.805,6.029,13.3029,4.60086,2470.707,2023-7-07T10:11:19Z
2023-07-07T08:12:07Z,42.805,6.029,13.3024,4.60086,2470.693,2023-7-07T10:14:23Z
2023-07-07T08:15:10Z,42.805,6.029,13.3028,4.60087,2470.717,2023-7-07T10:17:26Z
2023-07-07T08:18:13Z,42.805,6.029,13.3027,4.60086,2470.763,2023-7-07T10:20:29Z
2023-07-07T08:21:16Z,42.805,6.029,13.3028,4.60087,2470.717,2023-7-07T10:23:32Z
2023-07-07T08:24:19Z,42.805,6.029,13.3026,4.60088,2470.73,2023-7-07T10:26:35Z
2023-07-07T08:27:22Z,42.805,6.029,13.3027,4.60086,2470.777,2023-7-07T10:29:38Z
2023-07-07T08:30:23Z,42.805,6.029,13.3027,4.60087,2470.717,2023-7-07T10:32:39Z
2023-07-07T08:33:26Z,42.805,6.029,13.3026,4.60087,2470.717,2023-7-07T10:35:42Z
2023-07-07T08:36:29Z,42.805,6.029,13.3028,4.60087,2470.73,2023-7-07T10:38:45Z
2023-07-07T08:39:33Z,42.805,6.029,13.3026,4.60088,2470.693,2023-7-07T10:41:49Z
2023-07-07T08:42:36Z,42.805,6.029,13.3026,4.60089,2470.763,2023-7-07T10:44:52Z
2023-07-07T08:45:39Z,42.805,6.029,13.3024,4.60087,2470.717,2023-7-07T10:47:55Z
2023-07-07T08:48:42Z,42.805,6.029,13.3030,4.60092,2470.74,2023-7-07T10:50:58Z
2023-07-07T08:51:45Z,42.805,6.029,13.3027,4.60088,2470.754,2023-7-07T10:54:01Z
2023-07-07T08:54:48Z,42.805,6.029,13.3024,4.60087,2470.717,2023-7-07T10:57:04Z
2023-07-07T08:57:51Z,42.805,6.029,13.3028,4.60087,2470.717,2023-7-07T11:00:07Z
2023-07-07T09:00:54Z,42.805,6.029,13.3029,4.60087,2470.73,2023-7-07T11:03:10Z
2023-07-07T09:03:57Z,42.805,6.029,13.3025,4.60087,2470.754,2023-7-07T11:06:13Z
2023-07-07T09:07:00Z,42.805,6.029,13.3026,4.60088,2470.754,2023-7-07T11:09:16Z
2023-07-07T09:10:03Z,42.805,6.029,13.3026,4.60086,2470.74,2023-7-07T11:12:19Z
2023-07-07T09:13:06Z,42.805,6.029,13.3027,4.60086,2470.74,2023-7-07T11:15:22Z
2023-07-07T09:16:10Z,42.805,6.029,13.3027,4.60086,2470.74,2023-7-07T11:18:26Z
2023-07-07T09:19:13Z,42.805,6.029,13.3029,4.60087,2470.73,2023-7-07T11:21:29Z
2023-07-07T09:22:16Z,42.805,6.029,13.3024,4.60088,2470.74,2023-7-07T11:24:32Z
2023-07-07T09:25:19Z,42.805,6.029,13.3028,4.60087,2470.74,2023-7-07T11:27:35Z
2023-07-07T09:28:22Z,42.805,6.029,13.3029,4.60087,2470.717,2023-7-07T11:30:38Z
2023-07-07T09:31:25Z,42.805,6.029,13.3024,4.60086,2470.74,2023-7-07T11:33:41Z
2023-07-07T09:34:28Z,42.805,6.029,13.3027,4.60088,2470.74,2023-7-07T11:36:44Z
2023-07-07T09:37:31Z,42.805,6.029,13.3022,4.60087,2470.717,2023-7-07T11:39:47Z
2023-07-07T09:40:34Z,42.805,6.029,13.3029,4.60088,2470.74,2023-7-07T11:42:50Z
2023-07-07T09:43:37Z,42.805,6.029,13.3026,4.60086,2470.717,2023-7-07T11:45:53Z
2023-07-07T09:46:40Z,42.805,6.029,13.3029,4.60087,2470.73,2023-7-07T11:48:56Z
2023-07-07T09:49:43Z,42.805,6.029,13.3025,4.60087,2470.717,2023-7-07T11:51:59Z
2023-07-07T09:52:47Z,42.805,6.029,13.3026,4.60087,2470.717,2023-7-07T11:55:03Z
2023-07-07T09:55:50Z,42.805,6.029,13.3027,4.60089,2470.703,2023-7-07T11:58:06Z
2023-07-07T09:58:53Z,42.805,6.029,13.3027,4.60087,2470.73,2023-7-07T12:01:09Z
2023-07-07T10:01:56Z,42.805,6.029,13.3029,4.60088,2470.717,2023-7-07T12:04:12Z
2023-07-07T10:04:59Z,42.805,6.029,13.3029,4.60089,2470.74,2023-7-07T12:07:15Z
2023-07-07T10:08:02Z,42.805,6.029,13.3026,4.60089,2470.74,2023-7-07T12:10:18Z
2023-07-07T10:11:05Z,42.805,6.029,13.3025,4.60086,2470.754,2023-7-07T12:13:21Z
2023-07-07T10:14:08Z,42.805,6.029,13.3024,4.60086,2470.74,2023-7-07T12:16:24Z
2023-07-07T10:17:11Z,42.805,6.029,13.3024,4.60088,2470.73,2023-7-07T12:19:27Z
2023-07-07T10:20:14Z,42.805,6.029,13.3026,4.60085,2470.726,2023-7-07T12:22:30Z
2023-07-07T10:23:17Z,42.805,6.029,13.3024,4.60086,2470.74,2023-7-07T12:25:33Z
2023-07-07T10:26:20Z,42.805,6.029,13.3029,4.60087,2470.693,2023-7-07T12:28:36Z
2023-07-07T10:29:24Z,42.805,6.029,13.3026,4.60086,2470.74,2023-7-07T12:31:40Z
2023-07-07T10:32:26Z,42.805,6.029,13.3026,4.60086,2470.717,2023-7-07T12:34:42Z
2023-07-07T10:35:29Z,42.805,6.029,13.3027,4.60087,2470.763,2023-7-07T12:37:45Z
2023-07-07T10:38:32Z,42.805,6.029,13.3025,4.60087,2470.74,2023-7-07T12:40:48Z
2023-07-07T10:41:35Z,42.805,6.029,13.3024,4.60087,2470.707,2023-7-07T12:43:51Z
2023-07-07T10:44:39Z,42.805,6.029,13.3027,4.60088,2470.717,2023-7-07T12:46:55Z
2023-07-07T10:47:42Z,42.805,6.029,13.3027,4.60086,2470.74,2023-7-07T12:49:58Z
2023-07-07T10:50:45Z,42.805,6.029,13.3027,4.60087,2470.717,2023-7-07T12:53:01Z
2023-07-07T10:53:48Z,42.805,6.029,13.3026,4.60087,2470.717,2023-7-07T12:56:04Z
2023-07-07T10:56:51Z,42.805,6.029,13.3026,4.60087,2470.74,2023-7-07T12:59:07Z
2023-07-07T10:59:54Z,42.805,6.029,13.3027,4.60087,2470.717,2023-7-07T13:02:10Z
2023-07-07T11:02:57Z,42.805,6.029,13.3027,4.60087,2470.707,2023-7-07T13:05:13Z
2023-07-07T11:06:00Z,42.805,6.029,13.3028,4.60087,2470.707,2023-7-07T13:08:16Z
2023-07-07T11:09:03Z,42.805,6.029,13.3027,4.60091,2470.717,2023-7-07T13:11:19Z
2023-07-07T11:12:06Z,42.805,6.029,13.3029,4.60086,2470.717,2023-7-07T13:14:22Z
2023-07-07T11:15:09Z,42.805,6.029,13.3030,4.60086,2470.717,2023-7-07T13:17:25Z
2023-07-07T11:18:12Z,42.805,6.029,13.3026,4.60086,2470.693,2023-7-07T13:20:28Z
2023-07-07T11:21:16Z,42.805,6.029,13.3029,4.60087,2470.707,2023-7-07T13:23:32Z
2023-07-07T11:24:19Z,42.805,6.029,13.3025,4.60088,2470.73,2023-7-07T13:26:35Z
2023-07-07T11:27:22Z,42.805,6.029,13.3027,4.60087,2470.73,2023-7-07T13:29:38Z
2023-07-07T11:30:25Z,42.805,6.029,13.3022,4.60087,2470.67,2023-7-07T13:32:41Z
2023-07-07T11:33:28Z,42.805,6.029,13.3027,4.60086,2470.73,2023-7-07T13:35:44Z
2023-07-07T11:36:31Z,42.805,6.029,13.3028,4.60086,2470.693,2023-7-07T13:38:47Z
2023-07-07T11:39:34Z,42.805,6.029,13.3023,4.60086,2470.693,2023-7-07T13:41:50Z
2023-07-07T11:42:37Z,42.805,6.029,13.3022,4.60085,2470.693,2023-7-07T13:44:53Z
2023-07-07T11:45:40Z,42.805,6.029,13.3030,4.60086,2470.693,2023-7-07T13:47:56Z
2023-07-07T11:48:43Z,42.805,6.029,13.3027,4.60087,2470.717,2023-7-07T13:50:59Z
2023-07-07T11:51:46Z,42.805,6.029,13.3026,4.60086,2470.67,2023-7-07T13:54:02Z
2023-07-07T11:54:49Z,42.805,6.029,13.3027,4.60085,2470.684,2023-7-07T13:57:05Z
2023-07-07T11:57:53Z,42.805,6.029,13.3029,4.60085,2470.67,2023-7-07T14:00:09Z
2023-07-07T12:00:56Z,42.805,6.029,13.3029,4.60085,2470.684,2023-7-07T14:03:12Z
2023-07-07T12:03:59Z,42.805,6.029,13.3026,4.60087,2470.693,2023-7-07T14:06:15Z
2023-07-07T12:07:02Z,42.805,6.029,13.3024,4.60087,2470.693,2023-7-07T14:09:18Z
2023-07-07T12:10:05Z,42.805,6.029,13.3029,4.60086,2470.693,2023-7-07T14:12:21Z
2023-07-07T12:13:08Z,42.805,6.029,13.3026,4.60087,2470.646,2023-7-07T14:15:24Z
2023-07-07T12:16:11Z,42.805,6.029,13.3024,4.60086,2470.693,2023-7-07T14:18:27Z
2023-07-07T12:19:14Z,42.805,6.029,13.3028,4.60086,2470.661,2023-7-07T14:21:30Z
2023-07-07T12:22:17Z,42.805,6.029,13.3026,4.60087,2470.693,2023-7-07T14:24:33Z
2023-07-07T12:25:20Z,42.805,6.029,13.3033,4.60086,2470.684,2023-7-07T14:27:36Z
2023-07-07T12:28:23Z,42.805,6.029,13.3028,4.60087,2470.67,2023-7-07T14:30:39Z
2023-07-07T12:31:26Z,42.805,6.029,13.3029,4.60087,2470.67,2023-7-07T14:33:42Z
2023-07-07T12:34:30Z,42.805,6.029,13.3029,4.60087,2470.67,2023-7-07T14:36:46Z
2023-07-07T12:37:33Z,42.805,6.029,13.3027,4.60087,2470.717,2023-7-07T14:39:49Z
2023-07-07T12:40:36Z,42.805,6.029,13.3026,4.60086,2470.67,2023-7-07T14:42:52Z
2023-07-07T12:43:39Z,42.805,6.029,13.3029,4.60086,2470.684,2023-7-07T14:45:55Z
2023-07-07T12:46:42Z,42.805,6.029,13.3026,4.60086,2470.646,2023-7-07T14:48:58Z
2023-07-07T12:49:45Z,42.805,6.029,13.3023,4.60086,2470.67,2023-7-07T14:52:01Z
2023-07-07T12:52:48Z,42.805,6.029,13.3024,4.60087,2470.67,2023-7-07T14:55:04Z
2023-07-07T12:55:51Z,42.805,6.029,13.3026,4.60086,2470.67,2023-7-07T14:58:07Z
2023-07-07T12:58:54Z,42.805,6.029,13.3025,4.60085,2470.646,2023-7-07T15:01:10Z
2023-07-07T13:01:57Z,42.805,6.029,13.3025,4.60087,2470.693,2023-7-07T15:04:13Z
2023-07-07T13:05:00Z,42.805,6.029,13.3026,4.60086,2470.646,2023-7-07T15:07:16Z
2023-07-07T13:08:03Z,42.805,6.029,13.3026,4.60085,2470.693,2023-7-07T15:10:19Z
2023-07-07T13:11:07Z,42.805,6.029,13.3025,4.60086,2470.624,2023-7-07T15:13:23Z
2023-07-07T13:14:10Z,42.805,6.029,13.3031,4.60086,2470.67,2023-7-07T15:16:26Z
2023-07-07T13:17:13Z,42.805,6.029,13.3025,4.60085,2470.646,2023-7-07T15:19:29Z
2023-07-07T13:20:16Z,42.805,6.029,13.3022,4.60085,2470.684,2023-7-07T15:22:32Z
2023-07-07T13:23:19Z,42.805,6.029,13.3027,4.60085,2470.684,2023-7-07T15:25:35Z
2023-07-07T13:26:22Z,42.805,6.029,13.3024,4.60084,2470.637,2023-7-07T15:28:38Z
2023-07-07T13:29:25Z,42.805,6.029,13.3026,4.60084,2470.646,2023-7-07T15:31:41Z
2023-07-07T13:32:28Z,42.805,6.029,13.3022,4.60084,2470.6,2023-7-07T15:34:44Z
2023-07-07T13:35:31Z,42.805,6.029,13.3026,4.60085,2470.624,2023-7-07T15:37:47Z
2023-07-07T13:38:34Z,42.805,6.029,13.3023,4.60085,2470.661,2023-7-07T15:40:50Z
2023-07-07T13:41:37Z,42.805,6.029,13.3025,4.60087,2470.646,2023-7-07T15:43:53Z
2023-07-07T13:44:40Z,42.805,6.029,13.3028,4.60086,2470.624,2023-7-07T15:46:56Z
2023-07-07T13:47:44Z,42.805,6.029,13.3026,4.60085,2470.624,2023-7-07T15:50:00Z
2023-07-07T13:50:47Z,42.805,6.029,13.3024,4.60087,2470.646,2023-7-07T15:53:03Z
2023-07-07T13:53:50Z,42.805,6.029,13.3023,4.60086,2470.624,2023-7-07T15:56:06Z
2023-07-07T13:56:53Z,42.805,6.029,13.3027,4.60085,2470.67,2023-7-07T15:59:09Z
2023-07-07T13:59:56Z,42.805,6.029,13.3025,4.60085,2470.637,2023-7-07T16:02:12Z
2023-07-07T14:02:59Z,42.805,6.029,13.3024,4.60085,2470.637,2023-7-07T16:05:15Z
2023-07-07T14:06:02Z,42.805,6.029,13.3026,4.60084,2470.646,2023-7-07T16:08:18Z
2023-07-07T14:09:05Z,42.805,6.029,13.3026,4.60087,2470.637,2023-7-07T16:11:21Z
2023-07-07T14:12:08Z,42.805,6.029,13.3029,4.60086,2470.637,2023-7-07T16:14:24Z
2023-07-07T14:15:11Z,42.805,6.029,13.3022,4.60087,2470.646,2023-7-07T16:17:27Z
2023-07-07T14:18:14Z,42.805,6.029,13.3028,4.60087,2470.624,2023-7-07T16:20:30Z
2023-07-07T14:21:17Z,42.805,6.029,13.3028,4.60084,2470.6,2023-7-07T16:23:33Z
2023-07-07T14:24:21Z,42.805,6.029,13.3026,4.60084,2470.624,2023-7-07T16:26:37Z
2023-07-07T14:27:24Z,42.805,6.029,13.3026,4.60084,2470.6,2023-7-07T16:29:40Z
2023-07-07T14:30:27Z,42.805,6.029,13.3028,4.60086,2470.624,2023-7-07T16:32:43Z
2023-07-07T14:33:30Z,42.805,6.029,13.3026,4.60087,2470.614,2023-7-07T16:35:46Z
2023-07-07T14:36:33Z,42.805,6.029,13.3028,4.60089,2470.624,2023-7-07T16:38:49Z
2023-07-07T14:39:36Z,42.805,6.029,13.3030,4.60085,2470.661,2023-7-07T16:41:52Z
2023-07-07T14:42:39Z,42.805,6.029,13.3028,4.60085,2470.624,2023-7-07T16:44:55Z
2023-07-07T14:45:42Z,42.805,6.029,13.3031,4.60087,2470.624,2023-7-07T16:47:58Z
2023-07-07T14:48:45Z,42.805,6.029,13.3024,4.60085,2470.6,2023-7-07T16:51:01Z
2023-07-07T14:51:48Z,42.805,6.029,13.3025,4.60089,2470.6,2023-7-07T16:54:04Z
2023-07-07T14:54:51Z,42.805,6.029,13.3030,4.60087,2470.6,2023-7-07T16:57:07Z
2023-07-07T14:57:54Z,42.805,6.029,13.3028,4.60085,2470.6,2023-7-07T17:00:10Z
2023-07-07T15:00:58Z,42.805,6.029,13.3030,4.60084,2470.661,2023-7-07T17:03:14Z
2023-07-07T15:04:01Z,42.805,6.029,13.3033,4.60085,2470.6,2023-7-07T17:06:17Z
2023-07-07T15:07:04Z,42.805,6.029,13.3030,4.60090,2470.637,2023-7-07T17:09:20Z
2023-07-07T15:10:07Z,42.805,6.029,13.3030,4.60087,2470.661,2023-7-07T17:12:23Z
2023-07-07T15:13:10Z,42.805,6.029,13.3029,4.60086,2470.614,2023-7-07T17:15:26Z